Howell, MI

9:55 PM EST on December 11, 2017 (GMT -0500)
Livingston County

Weather History for KOZW - October, 2012

Change the Weather History Date:

Tuesday, October 23, 2012

  Actual Average Record
Temperature  
Mean Temperature 62 °F -  
Max Temperature 65 °F 56 °F 68 °F (2000)
Min Temperature 59 °F 39 °F 28 °F (1997)
Degree Days  
Heating Degree Days 3    
Growing Degree Days 12 (Base 50)    
Moisture  
Dew Point 58 °F    
Average Humidity 87    
Maximum Humidity 93    
Minimum Humidity 78    
Precipitation  
Precipitation 0.00 in - - ()
Sea Level Pressure  
Sea Level Pressure 29.95 in    
Wind  
Wind Speed 4 mph (SW)    
Max Wind Speed 10 mph    
Max Gust Speed -    
Visibility 5 miles    
Events Rain    
Averages and records for this station are not official NWS values.
T = Trace of Precipitation, MM = Missing Value Source: NWS Daily Summary

Daily Weather History Graph

Daily Weather History Graph

Search for Another Location

Airport or City:

Trip Planner

Search our weather history database for the weather conditions in past years. The results will help you decide how hot, cold, wet, or windy it might be!

Date:

Astronomy

Oct. 23, 2012 Rise Set
Actual Time 7:59 AM EDT 6:40 PM EDT
Civil Twilight 7:30 AM EDT 7:09 PM EDT
Nautical Twilight 6:57 AM EDT 7:42 PM EDT
Astronomical Twilight 6:24 AM EDT 8:14 PM EDT
Moon 3:30 PM EDT (10/23) 1:42 AM EDT (10/23)
Length of Visible Light 11h 38m
Length of Day
10h 41m
Waxing Gibbous, 66% of the Moon is Illuminated
Oct 23
Waxing Gibbous
Oct 29
Full
Nov 6
Last Quarter
Nov 13
New
Nov 20
First Quarter

Hourly Weather History & Observations

Time (EDT) Temp. Dew Point Humidity Pressure Visibility Wind Dir Wind Speed Gust Speed Precip Events Conditions
12:15 AM 59.7 °F 57.0 °F 91% 30.01 in 2.5 mi Calm Calm - N/A Rain Heavy Rain
12:35 AM 59.0 °F 56.3 °F 91% 29.98 in 1.8 mi ESE 6.9 mph - N/A Rain Rain
1:15 AM 59.9 °F 57.2 °F 91% 29.95 in 4.0 mi SE 10.4 mph - N/A Rain Rain
1:35 AM 60.3 °F 57.6 °F 91% 29.93 in 5.0 mi SSE 9.2 mph - N/A Rain Rain
1:54 AM 60.3 °F 57.4 °F 90% 29.93 in 5.0 mi SSE 9.2 mph - N/A Rain Light Rain
2:15 AM 60.3 °F 57.4 °F 90% 29.92 in 5.0 mi SSE 6.9 mph - N/A Rain Light Rain
2:35 AM 60.1 °F 57.2 °F 90% 29.91 in 5.0 mi South 8.1 mph - N/A Rain Light Rain
2:54 AM 60.3 °F 57.2 °F 90% 29.91 in 5.0 mi SSE 8.1 mph - N/A Rain Light Rain
3:15 AM 60.3 °F 57.2 °F 90% 29.91 in 5.0 mi SSE 8.1 mph - N/A   Overcast
3:35 AM 60.1 °F 57.2 °F 90% 29.90 in 5.0 mi SSE 5.8 mph - N/A   Overcast
4:15 AM 60.1 °F 57.2 °F 90% 29.89 in 5.0 mi South 6.9 mph - N/A   Overcast
4:34 AM 60.3 °F 57.2 °F 90% 29.90 in 7.0 mi SSE 8.1 mph - N/A   Overcast
4:55 AM 60.1 °F 57.0 °F 90% 29.90 in 4.0 mi SSW 5.8 mph - N/A   Drizzle
5:15 AM 60.1 °F 57.2 °F 90% 29.90 in 5.0 mi South 3.5 mph - N/A   Overcast
5:34 AM 60.3 °F 56.8 °F 88% 29.91 in 7.0 mi Calm Calm - N/A   Overcast
5:55 AM 60.3 °F 57.0 °F 89% 29.91 in 3.0 mi SSW 3.5 mph - N/A   Drizzle
6:15 AM 60.3 °F 57.4 °F 90% 29.91 in 3.0 mi SW 5.8 mph - N/A   Light Drizzle
6:34 AM 60.4 °F 57.6 °F 90% 29.91 in 4.0 mi SW 6.9 mph - N/A   Overcast
6:55 AM 60.4 °F 57.7 °F 91% 29.92 in 4.0 mi SW 3.5 mph - N/A   Overcast
7:34 AM 60.3 °F 57.6 °F 91% 29.92 in 3.0 mi SW 4.6 mph - N/A   Overcast
8:15 AM 60.6 °F 58.1 °F 91% 29.92 in 2.0 mi WSW 3.5 mph - N/A   Overcast
8:34 AM 60.8 °F 58.1 °F 91% 29.92 in 1.5 mi Calm Calm - N/A   Overcast
8:55 AM 60.8 °F 58.3 °F 91% 29.93 in 1.0 mi SW 3.5 mph - N/A   Overcast
9:14 AM 60.8 °F 58.5 °F 92% 29.93 in 1.0 mi SW 3.5 mph - N/A   Overcast
9:34 AM 61.0 °F 59.0 °F 93% 29.95 in 1.2 mi SW 4.6 mph - N/A   Overcast
9:55 AM 61.3 °F 59.2 °F 93% 29.96 in 1.8 mi WSW 5.8 mph - N/A   Overcast
10:14 AM 61.3 °F 59.0 °F 92% 29.97 in 1.8 mi WSW 5.8 mph - N/A   Overcast
10:35 AM 61.7 °F 59.4 °F 92% 29.98 in 2.0 mi WSW 6.9 mph - N/A   Overcast
10:55 AM 62.1 °F 59.5 °F 91% 29.98 in 2.5 mi WSW 6.9 mph - N/A   Overcast
11:14 AM 62.6 °F 59.5 °F 90% 29.98 in 3.0 mi West 5.8 mph - N/A   Overcast
11:55 AM 63.3 °F 59.9 °F 89% 29.98 in 4.0 mi West 5.8 mph - N/A   Overcast
12:14 PM 65.5 °F 60.1 °F 83% 29.98 in 7.0 mi NW 8.1 mph - N/A   Overcast
12:35 PM 64.8 °F 58.6 °F 81% 29.97 in 10.0 mi West 4.6 mph - N/A   Overcast
12:55 PM 64.6 °F 58.5 °F 80% 29.97 in 10.0 mi WSW 5.8 mph - N/A   Overcast
1:14 PM 64.0 °F 58.6 °F 83% 29.98 in 10.0 mi SW 6.9 mph - N/A   Overcast
1:35 PM 63.9 °F 58.3 °F 82% 29.98 in 7.0 mi SW 5.8 mph - N/A   Overcast
1:54 PM 63.7 °F 58.6 °F 84% 29.96 in 7.0 mi WSW 4.6 mph - N/A   Overcast
2:15 PM 64.0 °F 58.6 °F 83% 29.95 in 7.0 mi West 4.6 mph - N/A   Overcast
2:34 PM 64.0 °F 58.5 °F 82% 29.95 in 7.0 mi Calm Calm - N/A   Overcast
2:55 PM 64.0 °F 58.5 °F 82% 29.94 in 7.0 mi Calm Calm - N/A   Overcast
3:15 PM 64.2 °F 58.8 °F 83% 29.95 in 7.0 mi Calm Calm - N/A   Overcast
3:34 PM 64.4 °F 59.0 °F 83% 29.94 in 7.0 mi SSW 3.5 mph - N/A   Overcast
3:55 PM 64.4 °F 58.8 °F 82% 29.95 in 7.0 mi SSW 3.5 mph - N/A   Overcast
4:14 PM 64.4 °F 58.3 °F 80% 29.95 in 7.0 mi WSW 3.5 mph - N/A   Overcast
4:35 PM 64.6 °F 58.3 °F 80% 29.95 in 7.0 mi West 3.5 mph - N/A   Overcast
4:55 PM 64.4 °F 58.3 °F 80% 29.95 in 7.0 mi Calm Calm - N/A   Overcast
5:14 PM 64.6 °F 58.5 °F 80% 29.95 in 7.0 mi Calm Calm - N/A   Overcast
5:35 PM 64.9 °F 58.5 °F 79% 29.96 in 7.0 mi WSW 3.5 mph - N/A   Overcast
5:55 PM 65.3 °F 58.3 °F 78% 29.98 in 7.0 mi West 3.5 mph - N/A   Mostly Cloudy
6:14 PM 64.6 °F 58.5 °F 80% 29.98 in 7.0 mi Calm Calm - N/A   Overcast
6:35 PM 64.4 °F 58.1 °F 80% 29.98 in 7.0 mi Calm Calm - N/A   Overcast
6:55 PM 62.2 °F 57.7 °F 85% 29.97 in 7.0 mi Calm Calm - N/A   Scattered Clouds
7:14 PM 62.8 °F 58.5 °F 86% 29.97 in 7.0 mi Calm Calm - N/A   Mostly Cloudy
7:35 PM 61.9 °F 58.3 °F 88% 29.98 in 7.0 mi Calm Calm - N/A   Mostly Cloudy
7:54 PM 61.3 °F 58.3 °F 90% 29.98 in 7.0 mi Calm Calm - N/A   Scattered Clouds
8:14 PM 61.7 °F 58.1 °F 88% 29.99 in 5.0 mi Calm Calm - N/A   Mostly Cloudy
8:35 PM 61.7 °F 58.3 °F 89% 29.99 in 5.0 mi Calm Calm - N/A   Overcast
8:54 PM 61.2 °F 58.1 °F 90% 29.98 in 5.0 mi Calm Calm - N/A   Overcast
9:15 PM 61.3 °F 58.3 °F 90% 29.99 in 5.0 mi Calm Calm - N/A   Overcast
9:35 PM 61.2 °F 58.1 °F 90% 29.99 in 5.0 mi Calm Calm - N/A   Overcast
9:54 PM 61.5 °F 58.5 °F 90% 29.99 in 5.0 mi Calm Calm - N/A   Overcast
10:15 PM 61.7 °F 58.8 °F 90% 29.99 in 5.0 mi Calm Calm - N/A   Overcast
10:35 PM 61.7 °F 58.5 °F 89% 29.99 in 5.0 mi Calm Calm - N/A   Overcast
10:54 PM 61.9 °F 58.6 °F 89% 29.99 in 7.0 mi Calm Calm - N/A   Overcast
11:35 PM 62.1 °F 58.3 °F 87% 30.00 in 10.0 mi SSW 4.6 mph - N/A   Mostly Cloudy
11:54 PM 62.1 °F 57.7 °F 86% 30.00 in 10.0 mi SSW 4.6 mph - N/A   Mostly Cloudy